Year,Month,Day,Hour,Minute,Value (Times are PST for temperature in C)
2007,03,08,00,00,5.20
2007,03,08,00,05,5.10
2007,03,08,00,10,5.10
2007,03,08,00,15,5.10
2007,03,08,00,20,5.10
2007,03,08,00,25,5.10
2007,03,08,00,30,5.10
2007,03,08,00,35,5.10
2007,03,08,00,40,5.10
2007,03,08,00,45,4.90
2007,03,08,00,50,4.90
2007,03,08,00,55,4.90
2007,03,08,01,00,4.90
2007,03,08,01,05,4.60
2007,03,08,01,10,4.60
2007,03,08,01,15,4.40
2007,03,08,01,20,3.90
2007,03,08,01,25,3.70
2007,03,08,01,30,3.60
2007,03,08,01,35,3.50
2007,03,08,01,40,3.50
2007,03,08,01,45,3.30
2007,03,08,01,50,3.30
2007,03,08,01,55,3.20
2007,03,08,02,00,3.10
2007,03,08,02,05,3.10
2007,03,08,02,10,3.10
2007,03,08,02,15,3.10
2007,03,08,02,20,3.10
2007,03,08,02,25,3.10
2007,03,08,02,30,3.10
2007,03,08,02,35,3.10
2007,03,08,02,40,2.90
2007,03,08,02,45,2.90
2007,03,08,02,50,2.90
2007,03,08,02,55,2.90
2007,03,08,03,00,2.90
2007,03,08,03,05,2.90
2007,03,08,03,10,3.10
2007,03,08,03,15,3.10
2007,03,08,03,20,3.20
2007,03,08,03,25,3.30
2007,03,08,03,30,3.60
2007,03,08,03,35,3.80
2007,03,08,03,40,4.10
2007,03,08,03,45,4.20
2007,03,08,03,50,4.20
2007,03,08,03,55,4.20
2007,03,08,04,00,4.30
2007,03,08,04,05,4.20
2007,03,08,04,10,4.30
2007,03,08,04,15,4.30
2007,03,08,04,20,4.30
2007,03,08,04,25,4.40
2007,03,08,04,30,3.90
2007,03,08,04,35,3.70
2007,03,08,04,40,3.40
2007,03,08,04,45,3.30
2007,03,08,04,50,3.30
2007,03,08,04,55,3.70
2007,03,08,05,00,4.00
2007,03,08,05,05,4.30
2007,03,08,05,10,4.40
2007,03,08,05,15,4.40
2007,03,08,05,20,4.60
2007,03,08,05,25,4.60
2007,03,08,05,30,4.00
2007,03,08,05,35,3.40
2007,03,08,05,40,3.30
2007,03,08,05,45,3.10
2007,03,08,05,50,3.10
2007,03,08,05,55,2.90
2007,03,08,06,00,2.90
2007,03,08,06,05,2.90
2007,03,08,06,10,2.90
2007,03,08,06,15,2.90
2007,03,08,06,20,2.90
2007,03,08,06,25,2.90
2007,03,08,06,30,2.90
2007,03,08,06,35,3.10
2007,03,08,06,40,3.10
2007,03,08,06,45,3.10
2007,03,08,06,50,3.30
2007,03,08,06,55,4.00
2007,03,08,07,00,4.40
2007,03,08,07,05,4.70
2007,03,08,07,10,5.10
2007,03,08,07,15,5.30
2007,03,08,07,20,5.30
2007,03,08,07,25,5.30
2007,03,08,07,30,5.30
2007,03,08,07,35,5.30
2007,03,08,07,40,5.30
2007,03,08,07,45,5.30
2007,03,08,07,50,5.40
2007,03,08,07,55,5.60
2007,03,08,08,00,5.70
2007,03,08,08,05,5.70
2007,03,08,08,10,5.70
2007,03,08,08,15,5.60
2007,03,08,08,20,5.60
2007,03,08,08,25,5.70
2007,03,08,08,30,5.70
2007,03,08,08,35,5.90
2007,03,08,08,40,6.20
2007,03,08,08,45,6.20
2007,03,08,08,50,6.40
2007,03,08,08,55,6.40
2007,03,08,09,00,6.40
2007,03,08,09,05,6.40
2007,03,08,09,10,6.40
2007,03,08,09,15,6.30
2007,03,08,09,20,6.20
2007,03,08,09,25,6.20
2007,03,08,09,30,6.20
2007,03,08,09,35,6.10
2007,03,08,09,40,6.20
2007,03,08,09,45,6.30
2007,03,08,09,50,6.30
2007,03,08,09,55,6.40
2007,03,08,10,00,6.40
2007,03,08,10,05,6.40
2007,03,08,10,10,6.40
2007,03,08,10,15,6.40
2007,03,08,10,20,6.40
2007,03,08,10,25,6.60
2007,03,08,10,30,6.60
2007,03,08,10,35,6.80
2007,03,08,10,40,6.80
2007,03,08,10,45,7.00
2007,03,08,10,50,7.10
2007,03,08,10,55,7.20
2007,03,08,11,00,7.20
2007,03,08,11,05,7.20
2007,03,08,11,10,7.10
2007,03,08,11,15,7.00
2007,03,08,11,20,7.00
2007,03,08,11,25,7.10
2007,03,08,11,30,7.00
2007,03,08,11,35,7.10
2007,03,08,11,40,7.20
2007,03,08,11,45,7.20
2007,03,08,11,50,7.30
2007,03,08,11,55,7.30
2007,03,08,12,00,7.30
2007,03,08,12,05,7.30
2007,03,08,12,10,7.40
2007,03,08,12,15,7.40
2007,03,08,12,20,7.40
2007,03,08,12,25,7.30
2007,03,08,12,30,7.30
2007,03,08,12,35,7.30
2007,03,08,12,40,7.10
2007,03,08,12,45,6.90
2007,03,08,12,50,6.60
2007,03,08,12,55,6.40
2007,03,08,13,00,6.20
2007,03,08,13,05,6.10
2007,03,08,13,10,5.90
2007,03,08,13,15,5.80
2007,03,08,13,20,5.70
2007,03,08,13,25,5.70
2007,03,08,13,30,5.50
2007,03,08,13,35,5.40
2007,03,08,13,40,5.30
2007,03,08,13,45,5.30
2007,03,08,13,50,5.20
2007,03,08,13,55,4.90
2007,03,08,14,00,4.80
2007,03,08,14,05,4.70
2007,03,08,14,10,4.70
2007,03,08,14,15,4.80
2007,03,08,14,20,4.90
2007,03,08,14,25,5.10
2007,03,08,14,30,5.10
2007,03,08,14,35,5.10
2007,03,08,14,40,5.10
2007,03,08,14,45,5.10
2007,03,08,14,50,5.10
2007,03,08,14,55,5.20
2007,03,08,15,00,5.30
2007,03,08,15,05,5.30
2007,03,08,15,10,5.30
2007,03,08,15,15,5.30
2007,03,08,15,20,5.40
2007,03,08,15,25,5.50
2007,03,08,15,30,5.70
2007,03,08,15,35,5.70
2007,03,08,15,40,5.80
2007,03,08,15,45,5.80
2007,03,08,15,50,5.80
2007,03,08,15,55,5.90
2007,03,08,16,00,5.90
2007,03,08,16,05,5.90
2007,03,08,16,10,5.90
2007,03,08,16,15,5.90
2007,03,08,16,20,5.80
2007,03,08,16,25,5.70
2007,03,08,16,30,5.70
2007,03,08,16,35,5.70
2007,03,08,16,40,5.60
2007,03,08,16,45,5.50
2007,03,08,16,50,5.40
2007,03,08,16,55,5.30
2007,03,08,17,00,5.30
2007,03,08,17,05,5.30
2007,03,08,17,10,5.20
2007,03,08,17,15,5.10
2007,03,08,17,20,5.10
2007,03,08,17,25,5.10
2007,03,08,17,30,5.10
2007,03,08,17,35,5.10
2007,03,08,17,40,5.10
2007,03,08,17,45,5.10
2007,03,08,17,50,5.10
2007,03,08,17,55,5.10
2007,03,08,18,00,5.10
2007,03,08,18,05,5.10
2007,03,08,18,10,5.10
2007,03,08,18,15,5.10
2007,03,08,18,20,5.10
2007,03,08,18,25,5.10
2007,03,08,18,30,5.10
2007,03,08,18,35,5.20
2007,03,08,18,40,5.30
2007,03,08,18,45,5.30
2007,03,08,18,50,5.30
2007,03,08,18,55,5.40
2007,03,08,19,00,5.40
2007,03,08,19,05,5.40
2007,03,08,19,10,5.40
2007,03,08,19,15,5.50
2007,03,08,19,20,5.50
2007,03,08,19,25,5.60
2007,03,08,19,30,5.70
2007,03,08,19,35,5.70
2007,03,08,19,40,5.80
2007,03,08,19,45,5.80
2007,03,08,19,50,5.80
2007,03,08,19,55,5.80
2007,03,08,20,00,5.90
2007,03,08,20,05,6.10
2007,03,08,20,10,6.20
2007,03,08,20,15,6.30
2007,03,08,20,20,6.40
2007,03,08,20,25,6.40
2007,03,08,20,30,6.60
2007,03,08,20,35,6.70
2007,03,08,20,40,6.70
2007,03,08,20,45,6.60
2007,03,08,20,50,6.60
2007,03,08,20,55,6.60
2007,03,08,21,00,6.60
2007,03,08,21,05,6.60
2007,03,08,21,10,6.60
2007,03,08,21,15,6.40
2007,03,08,21,20,6.40
2007,03,08,21,25,6.60
2007,03,08,21,30,6.60
2007,03,08,21,35,6.60
2007,03,08,21,40,6.70
2007,03,08,21,45,6.80
2007,03,08,21,50,6.90
2007,03,08,21,55,7.00
2007,03,08,22,00,7.20
2007,03,08,22,05,7.30
2007,03,08,22,10,7.40
2007,03,08,22,15,7.50
2007,03,08,22,20,7.50
2007,03,08,22,25,7.60
2007,03,08,22,30,7.80
2007,03,08,22,35,7.80
2007,03,08,22,40,7.80
2007,03,08,22,45,7.90
2007,03,08,22,50,7.90
2007,03,08,22,55,7.90
2007,03,08,23,00,7.90
2007,03,08,23,05,7.90
2007,03,08,23,10,7.90
2007,03,08,23,15,7.90
2007,03,08,23,20,8.00
2007,03,08,23,25,8.00
2007,03,08,23,30,8.00
2007,03,08,23,35,7.90
2007,03,08,23,40,7.90
2007,03,08,23,45,7.90
2007,03,08,23,50,7.90
2007,03,08,23,55,7.90
